Flag for China Weather past 2 weeks in Kunming, Yunnan, China

57 °F

Mostly cloudy.

Feels Like: 55 °F
Forecast: 58 / 64 °F
Wind: 8 mph from Northeast

Location: Kunming Airport

Current Time: Oct 8, 2015 at 12:47:58 AM

Latest Report: Oct 8, 2015 at 12:00 AM

Visibility: 5 mi

Pressure: 30.33 "Hg (24.17 "Hg at 1909m altitude)

Humidity: 94%

Dew point: 55 °F

Location of KunmingLocation

Historic Weather in Kunming — Graph


Kunming temperature yesterday

Maximum temperature yesterday: 73 °F (at 1:00 PM)
Minimum temperature yesterday: 57 °F (at 7:00 PM)
Average temperature yesterday: 63 °F

Past Weeks' High & Low Weather Summary

High81 °F (Sep 30, 3:00 PM)100% (Sep 23, 9:00 AM)30.42 "Hg (Sep 23, 9:00 AM)
Low55 °F (Oct 5, 3:00 AM)47% (Oct 3, 3:00 PM)29.98 "Hg (Sep 24, 3:00 PM)
Average65 °F79%30.20 "Hg
* Reported Sep 22 11:00 PM — Oct 7 11:00 PM, Kunming, Weather by CustomWeather, © 2015

Note: Actual official high and low records may vary slightly from our data, if they occured in-between our weather recording intervals... More about our weather records


Kunming weather history for previous 24 hours

Time TempWeatherWind HumidityBarometerVisibility
11:00 PM
Wed, Oct 7
57 °FMostly cloudy.8 mph94%30.33 "Hg4 mi
10:00 PM57 °FPassing clouds.10 mph94%30.33 "HgN/A
9:00 PM57 °FPassing clouds.13 mph94%30.30 "HgN/A
8:00 PM57 °FSprinkles. Mostly cloudy.10 mph94%30.30 "Hg4 mi
7:00 PM57 °FThunderstorms. Mostly cloudy.17 mph94%30.27 "Hg3 mi
6:00 PM59 °FRain showers. More clouds than sun.13 mph94%30.27 "Hg3 mi
5:00 PM63 °FScattered clouds.15 mph83%30.21 "HgN/A
4:00 PM64 °FScattered clouds.15 mph78%30.21 "HgN/A
3:00 PM64 °FBroken clouds.13 mph83%30.21 "HgN/A
2:00 PM68 °FScattered clouds.13 mph83%30.24 "HgN/A
1:00 PM73 °FScattered clouds.10 mph57%30.27 "HgN/A
12:00 PM72 °FBroken clouds.10 mph61%30.27 "HgN/A
11:00 AM70 °FBroken clouds.8 mph69%30.30 "HgN/A
10:00 AM66 °FMore clouds than sun.6 mph78%30.30 "HgN/A
9:00 AM64 °FBroken clouds.8 mph83%30.27 "HgN/A
8:00 AM63 °FBroken clouds.8 mph88%30.27 "HgN/A
7:00 AM61 °FMostly cloudy.6 mph94%30.24 "Hg4 mi
6:00 AM61 °FPassing clouds.6 mph94%30.21 "HgN/A
5:00 AM63 °FPassing clouds.8 mph88%30.21 "HgN/A
4:00 AM63 °FPassing clouds.8 mph83%30.21 "HgN/A
3:00 AM63 °FPassing clouds.8 mph83%30.21 "HgN/A
2:00 AM63 °FClear.8 mph83%30.21 "Hg10 mi
1:00 AM63 °FClear.6 mph88%30.24 "Hg10 mi
12:00 AM63 °FClear.6 mph83%30.24 "Hg10 mi
Weather by CustomWeather, © 2015

See weather overviewHow to use our weather pages